This is the latest recevied weather packets stored in our database for station/object KB4NWJ. If no packets are shown the sender has not sent any weather packets the latest 10 day(s).
| Time | Temp. | Humidity | Pressure | Rain* | Wind** | Luminosity | Snow |
|---|---|---|---|---|---|---|---|
| 1777486942 | 25.56° C | 72% | 1014.1 hPa | 0 mm | - | 328 W/m² | - |
| 1777486639 | 25.56° C | 74% | 1014 hPa | 0 mm | - | 206 W/m² | - |
| 1777486337 | 25.56° C | 74% | 1014.2 hPa | 0 mm | - | 283 W/m² | - |
| 1777486034 | 25.56° C | 74% | 1014.3 hPa | 0 mm | - | 201 W/m² | - |
| 1777485730 | 26.11° C | 72% | 1014.2 hPa | 0 mm | - | 208 W/m² | - |
| 1777485426 | 26.67° C | 71% | 1014.2 hPa | 0 mm | - | 297 W/m² | - |
| 1777485121 | 26.67° C | 73% | 1013.9 hPa | 0 mm | - | 235 W/m² | - |
| 1777484819 | 26.67° C | 74% | 1014.2 hPa | 0 mm | - | 718 W/m² | - |
| 1777484515 | 26.11° C | 75% | 1014.3 hPa | 0 mm | - | 286 W/m² | - |
| 1777484213 | 26.11° C | 73% | 1014.4 hPa | 0 mm | - | 398 W/m² | - |
| 1777483909 | 25.56° C | 73% | 1014.5 hPa | 0 mm | - | 791 W/m² | - |
| 1777483605 | 26.11° C | 73% | 1014.6 hPa | 0 mm | - | 237 W/m² | - |
| 1777483300 | 26.11° C | 73% | 1014.7 hPa | 0 mm | - | 302 W/m² | - |
| 1777482996 | 26.11° C | 75% | 1014.7 hPa | 0 mm | - | 780 W/m² | - |
| 1777482693 | 26.67° C | 71% | 1014.5 hPa | 0 mm | - | 764 W/m² | - |
| 1777482389 | 26.67° C | 73% | 1014.9 hPa | 0 mm | - | 770 W/m² | - |
| 1777482087 | 27.22° C | 74% | 1014.7 hPa | 0 mm | - | 776 W/m² | - |
| 1777481785 | 26.11° C | 74% | 1014.7 hPa | 0 mm | - | 708 W/m² | - |
| 1777481482 | 25.56° C | 75% | 1014.7 hPa | 0 mm | - | 712 W/m² | - |
| 1777481178 | 25.56° C | 75% | 1014.6 hPa | 0 mm | - | 327 W/m² | - |
| 1777480875 | 25° C | 77% | 1014.5 hPa | 0 mm | - | 643 W/m² | - |
| 1777480571 | 25.56° C | 79% | 1014.9 hPa | 0 mm | - | 678 W/m² | - |
| 1777480269 | 25.56° C | 76% | 1014.6 hPa | 0 mm | - | 632 W/m² | - |
| 1777479964 | 25.56° C | 77% | 1014.7 hPa | 0 mm | - | 556 W/m² | - |
| 1777479661 | 24.44° C | 79% | 1015.3 hPa | 0 mm | - | 600 W/m² | - |
* Rain latest hour (hover to see other rain measurements)
** Current wind speed in m/s (hover to see current wind gust speed)